Simultaneous Nadir Overpasses (SNOs) Predictions

Prediction of SNOs between AQUA and METOP-C Satellite Orbit:

Table of predicted SNOs for the next 14.0 days since TLE Epoch: 1/23/2021
Index Date (AQUA) Time (AQUA) Lat,Lon (AQUA) SZA (AQUA ) Date (METOP-C) Time (METOP-C) Lat,Lon (METOP-C) SZA (METOP-C ) Distance(km) Time Diff (sec)
1 01/23/2021 09:26:01 -73.66,-146.97 86.92 01/23/2021 09:24:54 -73.65,-146.96 86.92 1.51 67
2 01/23/2021 10:15:29 73.70, 20.58 93.12 01/23/2021 10:15:32 73.72, 20.53 93.14 1.91 3
3 01/23/2021 11:04:58 -73.86,-172.13 86.72 01/23/2021 11:06:11 -73.88,-171.76 86.73 11.54 73
4 01/26/2021 05:00:17 -73.68, -80.57 87.59 01/26/2021 04:59:16 -73.65, -80.55 87.61 3.27 61
5 01/26/2021 05:49:45 73.73, 86.96 92.46 01/26/2021 05:49:54 73.71, 86.92 92.44 2.31 9
6 01/26/2021 06:39:19 -74.14,-106.32 87.11 01/26/2021 06:40:28 -74.12,-104.75 87.19 47.81 69
7 01/29/2021 00:34:33 -73.65, -14.07 88.35 01/29/2021 00:33:39 -73.65, -14.15 88.34 2.33 54
8 01/29/2021 01:24:02 73.75, 153.34 91.76 01/29/2021 01:24:16 73.75, 153.43 91.75 2.89 14
9 01/29/2021 02:13:40 -74.36, -40.42 87.59 01/29/2021 02:14:46 -74.37, -37.72 87.70 80.76 66
10 01/31/2021 20:08:50 -73.68, 52.30 89.09 01/31/2021 20:08:01 -73.69, 52.37 89.07 2.93 49
11 01/31/2021 20:58:18 73.73,-140.19 90.96 01/31/2021 20:58:39 73.74,-140.19 90.97 0.54 21
12 02/03/2021 15:43:05 -73.66, 118.78 89.93 02/03/2021 15:42:23 -73.69, 118.76 89.89 3.59 42
13 02/03/2021 16:32:33 73.72, -73.72 90.13 02/03/2021 16:33:01 73.73, -73.81 90.14 3.01 28



Historial Predications of SNOs between AQUA and METOP-C
